Regional Weather Roundup
Issued by NWS Jackson, KY

Home | Current Version | Previous Version | Graphics & Text | Print | Product List | Glossary On
Versions: 1 2 3 4 5 6 7 8 9 10 11 12 13 14 15 16 17 18 19 20 21 22 23 24 25 26 27 28 29 30 31 32 33 34 35 36 37 38 39 40 41 42 43 44 45 46 47 48 49 50
000
ASUS43 KJKL 281910
RWRJKL

EAST KENTUCKY HOURLY WEATHER ROUNDUP
NATIONAL WEATHER SERVICE JACKSON KY
300 PM EDT FRI APR 28 2017

NOTE: "FAIR" INDICATES FEW OR NO CLOUDS BELOW 12,000 FEET WITH
NO SIGNIFICANT WEATHER AND/OR OBSTRUCTIONS TO VISIBILITY.

* THESE REPORTS ARE NOT UNDER NWS QUALITY CONTROL AND MAY NOT
  REPORT WEATHER SUCH AS PRECIPITATION AND FOG.

KYZ079-080-083-085-087-088-110-112-115-119-120-282000
...EASTERN KENTUCKY...

CITY           SKY/WX    TMP DP  RH WIND       PRES   REMARKS
JACKSON        CLOUDY    81  54  39 VRB3      29.97F
LONDON         SUNNY     80  56  43 S12G20    29.96F
SOMERSET*      MOSUNNY   81  57  44 S13       29.94F
MONTICELLO*    MOSUNNY   81  61  50 SE10G18   29.95S
WILLIAMSBURG*  PTCLDY    82  59  44 S12       29.96S
MIDDLESBORO*   MOSUNNY   80  61  51 S7G18     29.99F
HARLAN APT*    CLEAR     82  52  34 S6        30.00S
PIKE CO APT*     N/A     79  58  48 E3        29.99S
BIG SANDY APT* PTCLDY    80  57  45 S7        29.99S
MOREHEAD APT*  CLEAR     77  54  44 SW7       29.99S
$$

KYZ035-036-041-042-044-050-067-078-099-282000
...CENTRAL KENTUCKY...

CITY           SKY/WX    TMP DP  RH WIND       PRES   REMARKS
MT STERLING*   CLOUDY    79  55  44 NW7       29.99S
FLEMING/MASON* CLOUDY    77  56  49 SW6       29.99S
DANVILLE*      PTSUNNY   79  59  50 SW9       29.95F
LEXINGTON      MOSUNNY   77  55  46 CALM      29.95F
FRANKFORT      CLOUDY    77  54  44 S3        29.93F
LOUISVILLE     CLOUDY    75  58  55 SE8       29.90F
GLASGOW*       PTSUNNY   79  62  55 S10G16    29.92F
BOWLING GREEN  PTSUNNY   81  66  60 S14       29.89F
$$

KYZ091>093-OHZ055-061-077-WVZ005-015-034-035-042-282000
...SOUTHERN OHIO/WEST VIRGINIA...

CITY           SKY/WX    TMP DP  RH WIND       PRES   REMARKS
COVINGTON      CLOUDY    70  55  59 SE9       29.96F
COLUMBUS       CLOUDY    67  47  48 E6        30.00F
DAYTON         CLOUDY    62  49  62 SE8       29.99F
WILMINGTON     CLOUDY    68  55  63 VRB5      29.99F
HUNTINGTON     MOSUNNY   79  52  38 SW8       29.97S
CHARLESTON     MOSUNNY   82  52  35 VRB7      29.97F
PINEVILLE*     SUNNY     83  47  28 MISG      30.05F
BECKLEY        MOSUNNY   75  56  51 SE8       30.06F
BLUEFIELD      SUNNY     77  45  32 VRB7      30.08F
LOGAN CO APT*    N/A     79  54  41 VRB7      30.00F
$$

VAZ002-007-008-TNZ017-027-036-066-071-282000
...SOUTHWEST VIRGINIA/EAST TENNESSEE...

CITY           SKY/WX    TMP DP  RH WIND       PRES   REMARKS
WISE*          SUNNY     77  39  25 S12       30.07F
JONESVILLE*      N/A     81  55  41 SW6       30.03S
ABINGDON*      SUNNY     82  50  33 CALM      30.03S
BRISTOL        MOSUNNY   82  53  36 NW7       30.01S
MORRISTOWN*    CLEAR     79  61  53 CALM      29.99F
SEVIERVILLE*   CLEAR     81  59  47 NE5       29.97F
KNOXVILLE      PTSUNNY   82  64  54 SW9       29.97F
LAFOLLETTE*    PTCLDY    79  63  57 S13G21    30.01F
OAK RIDGE      MOSUNNY   80  64  58 VRB7      30.00S
CROSSVILLE     CLOUDY    75  62  64 S12G18    30.01F
NASHVILLE      CLOUDY    79  66  64 S14G23    29.91F
$$

...KEY TO REMARKS...
VSB - VISIBILITY IN MILES
WCI - WIND CHILL INDEX
HX  - HEAT INDEX

$$



USA.gov is the U.S. government's official web portal to all federal, state and local government web resources and services.